Regional Weather Roundup
Issued by NWS

Home | Current Version | Previous Version | Text Only | Print | Product List | Glossary On
Versions: 1 2 3 4 5 6 7 8 9 10 11 12 13 14 15 16 17 18 19 20 21 22 23 24 25 26 27 28 29 30 31 32 33 34 35 36 37 38 39 40 41 42 43 44 45 46 47 48 49 50
000
ASUS44 KMEG 241410
RWRTN
TENNESSEE HOURLY STATE WEATHER ROUNDUP
NATIONAL WEATHER SERVICE MEMPHIS TN
900 AM CDT MON APR 24 2017

TNZ002-004-019-021-049-052-054-088>092-241500-
WEST TENNESSEE

CITY           SKY/WX    TMP DP  RH WIND       PRES   REMARKS
MEMPHIS INTL   MOSUNNY   61  48  62 N7        29.91R
NWS MEMPHIS      N/A     59 N/A N/A MISG        N/A
JACKSON        RAIN      56  50  80 NE8       29.90R
DYERSBURG      HAZE      61  46  59 NE10      29.92  VSB 1/2
SOMERVILLE     SUNNY     57  50  77 N7        29.89R
UNION CITY     SUNNY     59  46  63 N9        29.91R
BOLIVAR        PTSUNNY   55  50  82 NW5       29.88S
PARIS          CLOUDY    52  46  82 N5        29.90R
HUNTINGDON     CLOUDY    55  50  82 NW5       29.89S
LEXINGTON      CLOUDY    54  52  94 NE3       29.89R
SAVANNAH       CLOUDY    55  52  88 CALM      29.86F
$$

TNZ008-025-027-028-033-062-065-066-241500-
NORTH MIDDLE TENNESSEE

CITY           SKY/WX    TMP DP  RH WIND       PRES   REMARKS
NASHVILLE      CLOUDY    56  53  90 N7        29.86R
PORTLAND       MOSUNNY   57  52  82 CALM      29.84F
CLARKSVILLE    SUNNY     59  50  72 NE8       29.87S
SMYRNA         CLOUDY    56  54  93 N8        29.86R
COOKEVILLE     CLOUDY    57  54  88 CALM      29.81F
GALLATIN       CLOUDY    57  54  88 N9        29.88S
CROSSVILLE     CLOUDY    53  50  89 NE8       29.82F
$$

TNZ061-075-076-078-094-096-097-241500-
SOUTH MIDDLE TENNESSEE

CITY           SKY/WX    TMP DP  RH WIND       PRES   REMARKS
FAYETTEVILLE   CLOUDY    55  55 100 NW5       29.83R
TULLAHOMA      CLOUDY    54  54 100 N7        29.83S
WINCHESTER     CLOUDY    55  54  94 NE5       29.83R
MCMINNVILLE    CLOUDY    55  55 100 N3        29.82F
COLUMBIA       CLOUDY   N/A N/A N/A N6        29.85R
SHELBYVILLE    CLOUDY    57  55  94 NW8       29.85R
$$

TNZ017-018-042-046-047-241500-
NORTHEAST TENNESSEE

CITY           SKY/WX    TMP DP  RH WIND       PRES   REMARKS
TRI CITIES     PTSUNNY   57  49  74 NE8       29.84F
ELIZABETHTON   SUNNY     61  50  67 SE8       29.83F
$$

TNZ012-013-036-069-073-074-241500-
CENTRAL EAST TENNESSEE

CITY           SKY/WX    TMP DP  RH WIND       PRES   REMARKS
KNOXVILLE      CLOUDY    56  50  80 NE12      29.80S
OAK RIDGE      CLOUDY    59  50  72 E9        29.83R
DOWNTOWN KNOXV CLOUDY    57  52  82 CALM      29.82S
GATLINBURG     CLOUDY    54  50  87 VRB5      29.81R
MORRISTOWN     SUNNY     59  50  72 NE9       29.80S
JACKSBORO      SUNNY     59  52  77 E6        29.85S
$$

TNZ083-085-099-241500-
SOUTHEAST TENNESSEE

CITY           SKY/WX    TMP DP  RH WIND       PRES   REMARKS
CHATTANOOGA    CLOUDY    58  52  80 N14       29.81R
$$

SKY/WX REPORTED AS FAIR MEANS FEW OR NO CLOUDS BELOW
12 THOUSAND FEET.





USA.gov is the U.S. government's official web portal to all federal, state and local government web resources and services.